Current Temps

Weather Temperatures Right Now
Weather Temperatures - Feels Like

Interactive Temperatures Map | Weather by Zip Code

National Weather Service Data
ASUS41 Bulletin

Most recent data in the last 24 hours

380 
ASUS41 KAKQ 060115  WSI DDS:060115
RWRAKQ

REGIONAL WEATHER ROUNDUP
NATIONAL WEATHER SERVICE WAKEFIELD VA
900 PM EDT SUN JUL 05 2015

Note: "fair" indicates few or no clouds below 12,000 feet with no
significant weather and/or obstructions to visibility. * = Denotes
station may not report precipitation (e.g., rain,snow,etc.),
thunder or fog.

VAZ042-051-052>054-056-060200-
NORTHERN VIRGINIA
  
CITY           SKY/WX    TMP DP  RH WIND       PRES   REMARKS
WASH NATIONAL  CLOUDY    80  71  74 SE7       30.12S                  
DULLES         CLOUDY    77  70  79 S3        30.11F                  
FORT BELVOIR   MOCLDY    75  72  88 E2        30.12R                  
QUANTICO       LGT RAIN  79  69  71 SE9       30.12R                  
FREDERICKSBRG* LGT RAIN  78  76  92 E3        30.10S                  
STAFFORD*      LGT RAIN  76  69  79 E6        30.15S                  
WARRENTON      MOCLDY    76  74  95 E3        30.12R                  
CULPEPER*      CLOUDY    73  72  95 CALM      30.12R THUNDER          
MANASSAS*      CLEAR     75  73  94 CALM      30.12S                  
LEESBURG*      MOCLDY    79  72  78 SE3       30.12F                  
WINCHESTER     CLOUDY    75  70  83 SE5       30.12F                  
FRONT ROYAL*   FAIR      73  68  83 CALM      30.11S                  
LURAY*         MOCLDY    77  70  78 CALM      30.12S                  
$$

VAZ048-049-060>072-079>083-060200-
CENTRAL AND SOUTH CENTRAL VIRGINIA
  
CITY           SKY/WX    TMP DP  RH WIND       PRES   REMARKS
RICHMOND       LGT RAIN  74  71  91 SE6       30.11F                  
CHESTERFIELD*  NOT AVBL                                               
PETERSBURG*    LGT RAIN  73  73 100 CALM      30.11S                  
HANOVER        LGT RAIN  74  73  97 CALM      30.12F FOG              
TAPPAHANNOCK*  LGT RAIN  76  71  84 CALM      30.12S                  
QUINTON*       NOT AVBL                                               
CHARLOTTSVILLE CLOUDY    77  69  76 E5        30.11F                  
GORDONSVILLE*  CLOUDY    73  73 100 CALM      30.10F                  
ORANGE*        CLOUDY    77  73  88 CALM      30.12F                  
LOUISA*        CLOUDY    77  72  83 SE8       30.11S                  
BUMPASS*       FAIR      74  71  89 SE6       30.12R                  
FARMVILLE*     CLOUDY    74  74 100 SE3       30.11R THUNDER          
CREWE*         CLOUDY    72  70  95 CALM      30.13R                  
FORT PICKETT*  MOCLDY    71  70  98 CALM      30.12R                  
CHASE CITY*    CLOUDY    73  73 100 W3        30.14R                  
CLARKSVILLE*   CLOUDY    72  72 100 NE3       30.12R                  
SOUTH HILL*    CLOUDY    71  70  96 CALM      30.17R THUNDER          
LAWRENCEVILLE* NOT AVBL                                               
EMPORIA*       RAIN      72  70  94 CALM      30.12R                  
$$

VAZ088>098-060200-
SOUTHEAST VIRGINIA
  
CITY           SKY/WX    TMP DP  RH WIND       PRES   REMARKS
NORFOLK        CLOUDY    77  73  87 E5        30.10S                  
VIRGINIA BEACH CLOUDY    80  74  81 E6        30.10R THUNDER          
NORFOLK NAVAL  CLOUDY    76  74  93 E5        30.11S THUNDER          
WEST POINT*    CLOUDY    77  73  88 CALM      30.13S                  
SALUDA*        MOCLDY    75  73  91 SE5       30.11S                  
NEWPORT NEWS   LGT RAIN  76  74  93 CALM      30.12R                  
LANGLEY AFB    CLOUDY    76  74  93 E5        30.10R                  
FORT EUSTIS    DRIZZLE   75  75 100 CALM      30.11R                  
WILLIAMSBURG*  CLOUDY    77  75  94 CALM      30.13R                  
HR EXEC AP*    FAIR      75  72  88 CALM      30.12R THUNDER          
FRANKLIN*      CLOUDY    72  71  95 CALM      30.11F THUNDER          
WAKEFIELD      LGT RAIN  73  71  93 VRB3      30.11S FOG              
$$

VAZ020-022-025-037-045-060200-
WEST CENTRAL AND SOUTHWEST VIRGINIA
  
CITY           SKY/WX    TMP DP  RH WIND       PRES   REMARKS
STAUNTON*      CLOUDY    76  69  79 CALM      30.15S                  
WAYNESBORO*    CLOUDY    72  69  91 SE5       30.14F                  
HOT SPRINGS VA HVY RAIN  66  66 100 E5        30.21S VSB<1/4          
LYNCHBURG      TSTM      72  72 100 S9        30.13R FOG              
DANVILLE       CLOUDY    73  70  90 CALM      30.10R                  
SOUTH BOSTON*  CLOUDY    70  69  95 MISG      30.11F                  
MARTINSVILLE   MOCLDY    71  71 100 CALM      30.13R                  
ROANOKE        LGT RAIN  70  69  97 SE14      30.13R                  
BLACKSBURG     LGT RAIN  70  70 100 E5        30.17S                  
DUBLIN*        CLOUDY    67  67 100 E5        30.14F                  
MARION*        HVY RAIN  66  64  94 W7        30.16S                  
HILLSVILLE*    MOCLDY    65  64  98 E5        30.14S                  
RICHLANDS*     CLOUDY    67  67 100 CALM      30.14R FOG              
WISE*          CLOUDY    68  68 100 CALM      30.14R                  
ABINGDON*      MOCLDY    69  69  99 CALM      30.11R                  
$$

MDZ021>025-VAZ099-100-060200-
SOUTHERN MARYLAND AND THE DELMARVA PENINSULA
  
CITY           SKY/WX    TMP DP  RH WIND       PRES   REMARKS
PATUXENT RIVER CLOUDY    77  71  82 S3        30.11S                  
BAY BRIDGE APT   N/A     77  68  73 CALM      30.12F                  
LEONARDTOWN    CLOUDY    75  70  83 CALM      30.13F                  
DOVER          MOCLDY    73  72  98 SE6       30.12R                  
GEORGETOWN     MOCLDY    73  69  87 SE6       30.14R                  
EASTON         NOT AVBL                                               
CAMBRIDGE      MOCLDY    77  72  83 CALM      30.12S                  
SALISBURY      MOCLDY    73  71  93 SE3       30.13S                  
OCEAN CITY     MOCLDY    74  70  87 SE3       30.14R                  
WALLOPS ISLAND CLOUDY    75  72  90 SE7       30.14S                  
ACCOMACK*      CLOUDY    73  72  94 CALM      30.12F                  
$$

NCZ012>017-030>032-060200-
NORTH CENTRAL AND EASTERN NORTH CAROLINA
  
CITY           SKY/WX    TMP DP  RH WIND       PRES   REMARKS
ROANOKE RAPIDS RAIN      72  70  94 NE3       30.11R                  
RALEIGH        TSTM      70  66  88 SW29G40   30.16R FOG              
ELIZABETH CITY PTCLDY    81  74  79 S6        30.09R                  
AHOSKIE*       CLOUDY   N/A N/A N/A NW5       30.10S                  
EDENTON*         N/A     82  73  72 S9        30.08R                  
CURRITUCK*     PTCLDY    79  76  89 CALM      30.09F                  
KILL DEVIL HLS PTCLDY    81  72  74 S7        30.09S                  
MANTEO         PTCLDY    81  74  80 S15       30.10S                  
CAPE HATTERAS  CLEAR     78  75  90 SW10      30.13R                  
TARBORO*         N/A     78  71  79 NE5       30.09S                  
GOLDSBORO      PTCLDY    83  72  69 S6        30.06S                  
WASHINGTON     CLEAR     82  71  69 S8        30.10R                  
GREENVILLE     PTCLDY    82  72  69 S7        30.10R                  
NEW BERN       CLEAR     80  73  79 S9        30.12R                  
WILMINGTON     MOCLDY    80  72  76 SW10      30.11S                  
$$

VAZ048-060200-
ELSEWHERE
  
CITY           SKY/WX    TMP DP  RH WIND       PRES   REMARKS
HARRISBURG PA  CLOUDY    71  66  84 CALM      30.12R                  
BALTIMORE      CLOUDY    77  67  71 CALM      30.12R                  
ANNAPOLIS      MOCLDY    77  70  79 E3        30.11S                  
ANDREWS AFB    MOCLDY    74  73  97 SE6       30.12S                  
PHILADELPHIA   MOCLDY    79  66  64 S8        30.13R                  
HENDERSON NC   CLOUDY    71  68  90 NE5       30.11R                  
GREENSBORO     MOCLDY    73  69  87 SE7       30.09R                  
ROCKY MOUNT    MOCLDY    75  73  93 CALM      30.09R                  
$$

VAZ100-060200-
MARINE
  
STATION/POSITION TIME  TEMP    WIND        PRES    WAVE   SWELL
                       AIR SEA DIR/SP/G            HT/PER HT/PER
                 (UTC) (F)     (DEG/KT/KT) (MB)    (FT/S) (FT/S)
BRANDYWINE LGT   0000   74 75  150/ 12/ 13 1020.6R
CAPE MAY NJ      0000   74 78  120/  6/  7 1020.3R
LEWES DE         0000   74 75  140/  5/  7 1020.2R
15NM E FENWICK I 0050   75 75              1020.4R   3/ 6
OCEAN-CITY-INLET 0000   76 78  140/  5/  8 1020.1R
WACHAPREAGUE VA  0000   76 84  120/  5/  8 1020.3R
GOOSES REEF MD   0100   79 79  190/  8/  8 1020.7F
COVE POINT MD    0000   78     190/  6/  7 1020.4R
SOLOMONS ISLAND  0000      82                N/A
BISHOPS HEAD MD  0000   79     160/ 11/ 12 1019.6R
PINEY POINT MD   0000          180/ 10/ 12   N/A
CAMBRIDGE MD     0000   79 79  310/  3/  4 1019.7R
LEWISETTA VA     0000   78 81  170/  6/  7 1019.7R
RAPPAHANNOCK LGT 0000          110/  7/  8 1020.5R
STINGRAY PT      0100   78 80  120/  8/ 10 1020.0S   1/ 3
YORK RVR RNG VA  0000   78     120/  8/  9 1018.9F
YORKTOWN VA      0000   77 81  100/  6/  7 1019.1F
JAMESTOWN VA     0100   76 83   90/  2/  4   N/A
DOMINION TERM VA 0000   78      80/ 11/ 14 1018.8F
KIPTOPEKE VA     0000      83  110/  6/  8   N/A
CHES BAY BRIDGE  0000   77 78   80/  9/ 11 1018.8F
CAPE HENRY VA    0000   77      90/  9/ 10   N/A
CHESAPEAKE LGHT  0000   77     100/ 10/ 11 1020.0R
WILLOUBY STN VA  0000   77      80/  9/ 11 1019.8F
CAPE HENRY BUOY  0028      78                N/A     3/ 8
1ST LANDING BUOY 0100      78              1019.0R   1/ 3
CAPE CHARLES BUO 0026      77                N/A     2/13   2/13
OFFSHORE WE BUOY 0011      78                N/A     3/ 8   3/ 8
64NM E OF VA BCH 0050   78 78  130/  8/  8 1019.3F   3/ 6   3/ 6
DUCK PIER NC     0000   83 77  180/ 10/ 12   N/A
44100 DUCK FRF   0024      79                N/A     3/14
44056 DUCK FRF   0011      79                N/A     2/13   2/13
OREGON INLET NC  0000   81 83  180/ 14/ 16 1019.2R
HATTERAS NC      0000   80 81  180/  5/ 10 1019.4R
DIAMOND SHLS NC  0050   81 81  210/ 14/ 17 1019.8R   3/ 8   2/ 8
CAPE LOOKOUT NC  0100   80     210/ 11/ 15 1020.2R
$$



ASUS41 Bulletin

Most recent data in the last 24 hours

719 
ASUS41 KLWX 060110  WSI DDS:060111
RWRLWX

REGIONAL WEATHER ROUNDUP
NATIONAL WEATHER SERVICE BALTIMORE MD/WASHINGTON DC
900 PM EDT SUN JUL 05 2015

Note: "FAIR" indicates few or no clouds below 12,000 feet
with no significant weather and/or obstructions to visibility.
 TC=TEMPERATURE CELSIUS

 * =Non NWS site. Station does not report precipitation (e.g. rain,
    snow, etc.), thunder, or fog.

DCZ001-MDZ009-015-VAZ040>042-051-053>054-060200-
WASHINGTON METRO
  
CITY           SKY/WX    TMP DP  RH WIND       PRES   REMARKS
WASHINGTON NAT CLOUDY    80  71  74 SE7       30.12S                  
DULLES         CLOUDY    77  70  79 S3        30.11F                  
ANDREWS AFB    MOCLDY    74  73  97 SE6       30.12S                  
FT BELVOIR     MOCLDY    75  72  88 E2        30.12R                  
QUANTICO       LGT RAIN  79  69  71 SE9       30.12R                  
COLLEGE PARK*  MOCLDY    77  70  78 CALM      30.12S                  
LEESBURG*      MOCLDY    79  72  78 SE3       30.12F                  
MANASSAS*      CLEAR     75  73  94 CALM      30.12S                  
GAITHERSBURG*  CLOUDY    73  68  83 E3        30.16S                  

$$

MDZ006>007-011-014-060200-
BALTIMORE METRO
  
CITY           SKY/WX    TMP DP  RH WIND       PRES   REMARKS
BWI AIRPORT    CLOUDY    77  67  71 CALM      30.12R                  
MD SCIENCE CTR   N/A     79  66  64 MISG      30.12S                  
MARTIN STATE   MOCLDY    75  72  88 CALM      30.13S                  
ANNAPOLIS      MOCLDY    77  70  79 E3        30.11S                  
FORT MEADE*    CLOUDY    72  68  88 CALM      30.14S                  

$$

MDZ012-015-019>023-060200-
MARYLAND EASTERN SHORE
  
CITY           SKY/WX    TMP DP  RH WIND       PRES   REMARKS
OCEAN CITY     MOCLDY    74  70  87 SE3       30.14R                  
SALISBURY      MOCLDY    73  71  93 SE3       30.13S                  
BAY BRIDGE AP*   N/A     77  68  73 CALM      30.12F                  
CAMBRIDGE*     MOCLDY    77  72  83 CALM      30.12S                  

$$

MDZ017>025-060200-
SOUTHERN MARYLAND
  
CITY           SKY/WX    TMP DP  RH WIND       PRES   REMARKS
PATUXENT RIVER CLOUDY    77  71  82 S3        30.11S                  
ST INIGOES     NOT AVBL                                               
LEONARDTOWN*   CLOUDY    75  70  83 CALM      30.13F                  

$$

MDZ003>005-060200-
NORTH CENTRAL MARYLAND
  
CITY           SKY/WX    TMP DP  RH WIND       PRES   REMARKS
FREDERICK*     CLOUDY    77  73  88 CALM      30.14R                  
HAGERSTOWN APT CLOUDY    78  67  68 SE5       30.13R                  
WESTMINSTER*   CLOUDY    75  70  83 SE3       30.14S                  

$$

MDZ501>502-060200-
WESTERN MARYLAND
  
CITY           SKY/WX    TMP DP  RH WIND       PRES   REMARKS
OAKLAND*       CLOUDY    64 N/A N/A SE9       30.19F HAZE             
CUMBERLAND*    CLOUDY    73  70  88 NW3       30.15S                  

$$

VAZ025>031-060200-
SHENANDOAH VALLEY
  
CITY           SKY/WX    TMP DP  RH WIND       PRES   REMARKS
WINCHESTER*    CLOUDY    75  70  83 SE5       30.12F                  
FRONT ROYAL*   FAIR      73  68  83 CALM      30.11S                  
LURAY*         MOCLDY    77  70  78 CALM      30.12S                  
NEW MARKET*    CLOUDY    72  70  93 CALM      30.10F                  
STAUNTON*      CLOUDY    76  69  79 CALM      30.15S                  
WAYNESBORO*    CLOUDY    72  69  91 SE5       30.14F                  

$$

WVZ021-048>050-054>055-060200-
EASTERN WEST VIRGINIA PANHANDLE
  
CITY           SKY/WX    TMP DP  RH WIND       PRES   REMARKS
MARTINSBURG    CLOUDY    76  70  82 CALM      30.12S                  
PETERSBURG*    CLOUDY    73  68  82 CALM      30.12S                  

$$

VAZ036>039-050-060200-
CENTRAL FOOTHILLS
  
CITY           SKY/WX    TMP DP  RH WIND       PRES   REMARKS
CHARLOTTESVILL CLOUDY    77  69  76 E5        30.11F                  
CULPEPER*      CLOUDY    73  72  95 CALM      30.12R THUNDER          
ORANGE*        CLOUDY    77  73  88 CALM      30.12F                  
GORDONSVILLE*  CLOUDY    73  73 100 CALM      30.10F                  
WARRENTON*     FAIR      76  74  95 E3        30.12R                  

$$

VAZ055>057-060200-
NORTH AND CENTRAL PIEDMONT
  
CITY           SKY/WX    TMP DP  RH WIND       PRES   REMARKS
FREDERICKSBRG* LGT RAIN  78  76  92 E3        30.10S                  
STAFFORD*      LGT RAIN  76  69  79 E6        30.15S                  

$$

NCZ024-NYZ072-PAZ021-071-VAZ022-071-060200-
OTHER REGIONAL OBSERVATIONS
  
CITY           SKY/WX    TMP DP  RH WIND       PRES   REMARKS
NEW YORK CITY  PTCLDY    76  61  59 CALM      30.14R                  
PHILADELPHIA   MOCLDY    79  66  64 S8        30.13R                  
PITTSBURGH     CLOUDY    77  59  53 NE6       30.09F                  
ROANOKE        LGT RAIN  70  69  97 SE14      30.13R                  
RICHMOND       LGT RAIN  74  71  91 SE6       30.11F                  
RALEIGH        TSTM      70  66  88 SW29G40   30.16R FOG              

$$

ANZ530>537-060200-
MARINE OBSERVATIONS
  
STATION/POSITION TIME  TEMP    WIND        PRES
                       AIR SEA DIR/SP/G
                 (UTC) (F)     (DEG/KT/KT) (MB)
THOMAS PT LIGHT  NOT AVBL
BALT KEY BRIDGE  0000   78     100/  6/  7 1019.7R
COVE POINT       0000   78     190/  6/  7 1020.4R
LEWISETTA        0000   78 81  170/  6/  7 1019.7R
SOLOMONS ISLAND  0000      82                N/A
PINEY POINT      0000          180/ 10/ 12   N/A

$$



Weather Maps

LOCAL DOPPLER RADAR

LOCAL FORECAST

METRO ZONE WEATHER

REGIONAL WEATHER

EASTERN WEATHER

NATIONAL WEATHER

SEVERE WEATHER

Weather Cams
Topper Shutt Weather Blog
Howard Bernstein Weather Blog
Erica Grow Weather Blog
Weather Photos
Get automated phone alerts when severe weather is in your area. Sign up for the WUSA9 First Alert Weather Call.